Mumbai, India

2:33 AM IST on May 24, 2017 (GMT +0530)
Chhatrapati Shivaji International

Weather History for VABB - November, 2011

Change the Weather History Date:

Sunday, November 27, 2011

  Actual Average Record
Temperature  
Mean Temperature 86 °F -  
Max Temperature 96 °F 88 °F 97 °F (2016)
Min Temperature 76 °F 68 °F 55 °F (2007)
Cooling Degree Days 21    
Growing Degree Days 36 (Base 50)    
Moisture  
Dew Point 65 °F    
Average Humidity 47    
Maximum Humidity 62    
Minimum Humidity 24    
Precipitation  
Precipitation 0.00 in - - ()
Sea Level Pressure  
Sea Level Pressure 29.76 in    
Wind  
Wind Speed 4 mph ()    
Max Wind Speed 12 mph    
Max Gust Speed -    
Visibility 2.4 miles    
Events      
Averages and records for this station are not official NWS values.
T = Trace of Precipitation, MM = Missing Value Source: Averaged Metar Reports

Daily Weather History Graph

Daily Weather History Graph

Search for Another Location

Airport or City:

Trip Planner

Search our weather history database for the weather conditions in past years. The results will help you decide how hot, cold, wet, or windy it might be!

Date:

Astronomy

Nov. 27, 2011 Rise Set
Actual Time 6:52 AM IST 5:59 PM IST
Civil Twilight 6:29 AM IST 6:22 PM IST
Nautical Twilight 6:02 AM IST 6:49 PM IST
Astronomical Twilight 5:35 AM IST 7:16 PM IST
Moon 8:48 AM IST (11/27) 8:11 PM IST (11/27)
Length of Visible Light 11h 53m
Length of Day
11h 06m
Waxing Crescent, 6% of the Moon is Illuminated
Nov 27
Waxing Crescent
Dec 2
First Quarter
Dec 10
Full
Dec 18
Last Quarter
Dec 24
New

Hourly Weather History & Observations

Time (IST) Temp. Heat Index Dew Point Humidity Pressure Visibility Wind Dir Wind Speed Gust Speed Precip Events Conditions
12:10 AM 86.0 °F 86.6 °F 62.6 °F 45% 29.77 in - East 5.8 mph - N/A   Smoke
12:40 AM 84.2 °F 85.0 °F 62.6 °F 48% 29.77 in - ENE 4.6 mph - N/A   Smoke
1:10 AM 84.2 °F 85.0 °F 62.6 °F 48% 29.77 in - Calm Calm - N/A   Smoke
1:40 AM 84.2 °F 85.0 °F 62.6 °F 48% 29.77 in - NNE 4.6 mph - N/A   Smoke
2:10 AM 84.2 °F 85.0 °F 62.6 °F 48% 29.77 in - NE 3.5 mph - N/A   Smoke
2:30 AM 81 °F - 65 °F 49% 29.76 in 1 mi Calm Calm - -   Smoke
2:40 AM 84.2 °F 85.0 °F 62.6 °F 48% 29.77 in - ENE 3.5 mph - N/A   Smoke
3:10 AM 84.2 °F 85.0 °F 62.6 °F 48% 29.74 in - ENE 5.8 mph - N/A   Smoke
3:40 AM 84.2 °F 85.0 °F 62.6 °F 48% 29.74 in - NE 4.6 mph - N/A   Smoke
4:10 AM 84.2 °F 85.0 °F 62.6 °F 48% 29.74 in - NE 4.6 mph - N/A   Smoke
4:40 AM 84.2 °F 85.6 °F 64.4 °F 51% 29.77 in - NE 3.5 mph - N/A   Smoke
5:10 AM 82.4 °F 83.9 °F 64.4 °F 54% 29.77 in 2.2 mi NE 4.6 mph - N/A   Smoke
5:30 AM 78 °F - 66 °F 58% 29.78 in 1 mi Calm Calm - -   Smoke
5:40 AM 82.4 °F 83.9 °F 64.4 °F 54% 29.77 in 2.2 mi East 4.6 mph - N/A   Smoke
6:10 AM 82.4 °F 83.9 °F 64.4 °F 54% 29.77 in - Calm Calm - N/A   Smoke
7:10 AM 82.4 °F 83.9 °F 64.4 °F 54% 29.80 in 1.9 mi ENE 4.6 mph - N/A   Smoke
7:40 AM 82.4 °F 83.9 °F 64.4 °F 54% 29.80 in 1.9 mi Calm Calm - N/A   Smoke
8:10 AM 84.2 °F 85.6 °F 64.4 °F 51% 29.83 in 1.9 mi NNE 3.5 mph - N/A   Smoke
8:30 AM 80 °F - 67 °F 55% 29.83 in 1 mi NE 3.5 mph - -   Smoke
8:40 AM 84.2 °F 85.6 °F 64.4 °F 51% 29.83 in 1.9 mi ENE 6.9 mph - N/A   Smoke
9:10 AM 86.0 °F 88.2 °F 66.2 °F 51% 29.83 in 1.9 mi East 5.8 mph - N/A   Smoke
9:40 AM 87.8 °F 90.4 °F 66.2 °F 49% 29.86 in 2.2 mi ESE 4.6 mph - N/A   Smoke
10:10 AM 87.8 °F 90.4 °F 66.2 °F 49% 29.86 in 2.2 mi SSE 4.6 mph - N/A   Smoke
10:40 AM 89.6 °F 92.2 °F 66.2 °F 46% 29.83 in 2.2 mi ESE 9.2 mph - N/A   Smoke
11:10 AM 91.4 °F 94.0 °F 66.2 °F 43% 29.83 in 2.5 mi ESE 9.2 mph - N/A   Smoke
11:30 AM 93 °F - 66 °F 31% 29.83 in 1 mi SE 3.5 mph - -   Smoke
11:40 AM 91.4 °F 94.0 °F 66.2 °F 43% 29.83 in 2.5 mi East 6.9 mph - N/A   Smoke
12:40 PM 93.2 °F 94.1 °F 62.6 °F 36% 29.77 in 3.1 mi East 10.4 mph - N/A   Smoke
1:10 PM 95.0 °F 96.0 °F 62.6 °F 34% 29.77 in 3.1 mi East 10.4 mph - N/A   Smoke
1:40 PM 95.0 °F 96.0 °F 62.6 °F 34% 29.74 in 3.1 mi East 8.1 mph - N/A   Smoke
2:10 PM 95.0 °F 95.2 °F 60.8 °F 32% 29.71 in 3.1 mi East 11.5 mph - N/A   Smoke
2:30 PM 95 °F - 62 °F 24% 29.72 in 1 mi ENE 9.2 mph - -   Smoke
2:40 PM 95.0 °F 95.2 °F 60.8 °F 32% 29.71 in 3.7 mi ENE 9.2 mph - N/A   Partly Cloudy
3:10 PM 95.0 °F 96.0 °F 62.6 °F 34% 29.71 in 5.0 mi East 6.9 mph - N/A   Scattered Clouds
3:40 PM 95.0 °F 96.0 °F 62.6 °F 34% 29.68 in 5.0 mi East 9.2 mph - N/A   Scattered Clouds
4:10 PM 95.0 °F 96.0 °F 62.6 °F 34% 29.68 in 4.3 mi ENE 6.9 mph - N/A   Scattered Clouds
4:40 PM 95.0 °F 96.0 °F 62.6 °F 34% 29.68 in 3.7 mi NE 6.9 mph - N/A   Scattered Clouds
5:10 PM 93.2 °F 94.1 °F 62.6 °F 36% 29.68 in 3.7 mi ENE 8.1 mph - N/A   Scattered Clouds
5:30 PM 92 °F - 71 °F 41% 29.70 in 1 mi ENE 3.5 mph - -   Smoke
6:10 PM 91.4 °F 93.2 °F 64.4 °F 41% 29.71 in 3.1 mi SE 3.5 mph - N/A   Smoke
6:40 PM 91.4 °F 92.1 °F 62.6 °F 38% 29.71 in 2.5 mi NW 4.6 mph - N/A   Smoke
7:10 PM 91.4 °F 96.8 °F 69.8 °F 49% 29.71 in 2.5 mi NNW 5.8 mph - N/A   Smoke
7:40 PM 87.8 °F 93.8 °F 71.6 °F 58% 29.74 in 2.5 mi NNW 4.6 mph - N/A   Smoke
8:10 PM 87.8 °F 93.8 °F 71.6 °F 58% 29.74 in 2.5 mi North 5.8 mph - N/A   Smoke
8:30 PM 85 °F - 72 °F 58% 29.75 in 1 mi Calm Calm - -   Smoke
9:10 PM 86.0 °F 91.8 °F 71.6 °F 62% 29.77 in 1.9 mi North 5.8 mph - N/A   Smoke
9:40 PM 86.0 °F 90.4 °F 69.8 °F 58% 29.77 in 1.9 mi NNE 4.6 mph - N/A   Smoke
10:10 PM 86.0 °F 89.4 °F 68.0 °F 55% 29.77 in 2.2 mi Calm Calm - N/A   Smoke
10:40 PM 86.0 °F 89.4 °F 68.0 °F 55% 29.77 in 2.2 mi ENE 4.6 mph - N/A   Smoke
11:10 PM 86.0 °F 89.4 °F 68.0 °F 55% 29.77 in 2.2 mi NE 3.5 mph - N/A   Smoke
11:30 PM 83 °F - 71 °F 60% 29.77 in 1 mi Calm Calm - -   Smoke
11:40 PM 86.0 °F 89.4 °F 68.0 °F 55% 29.77 in 2.2 mi Calm Calm - N/A   Smoke